Jackson, WY

1:07 AM MDT on April 24, 2017 (GMT -0600)
Jackson Hole

Weather History for KJAC - April, 2014

Change the Weather History Date:

Wednesday, April 30, 2014

  Actual Average Record
Temperature  
Mean Temperature 36 °F -  
Max Temperature 53 °F 53 °F 75 °F (1987)
Min Temperature 19 °F 24 °F 12 °F (1975)
Degree Days  
Heating Degree Days 29    
Moisture  
Dew Point 20 °F    
Average Humidity 68    
Maximum Humidity 100    
Minimum Humidity 21    
Precipitation  
Precipitation 0.00 in - - ()
Sea Level Pressure  
Sea Level Pressure 30.46 in    
Wind  
Wind Speed 6 mph (North)    
Max Wind Speed 21 mph    
Max Gust Speed 29 mph    
Visibility 10 miles    
Events      
Averages and records for this station are not official NWS values.
T = Trace of Precipitation, MM = Missing Value Source: NWS Daily Summary

Daily Weather History Graph

Daily Weather History Graph

Search for Another Location

Airport or City:

Trip Planner

Search our weather history database for the weather conditions in past years. The results will help you decide how hot, cold, wet, or windy it might be!

Date:

Astronomy

Apr. 30, 2014 Rise Set
Actual Time 6:16 AM MDT 8:24 PM MDT
Civil Twilight 5:45 AM MDT 8:55 PM MDT
Nautical Twilight 5:06 AM MDT 9:34 PM MDT
Astronomical Twilight 4:24 AM MDT 10:17 PM MDT
Moon 7:19 AM MDT (4/30) 10:08 PM MDT (4/30)
Length of Visible Light 15h 10m
Length of Day
14h 07m
Waxing Crescent, 3% of the Moon is Illuminated
Apr 30
Waxing Crescent
May 6
First Quarter
May 14
Full
May 21
Last Quarter
May 28
New

Hourly Weather History & Observations

Time (MDT) Temp. Windchill Dew Point Humidity Pressure Visibility Wind Dir Wind Speed Gust Speed Precip Events Conditions
12:15 AM 30.2 °F 23.4 °F 23.0 °F 75% 30.50 in - NW 6.9 mph - N/A   Clear
12:35 AM 28.4 °F 23.3 °F 24.8 °F 86% 30.50 in - NNW 4.6 mph - N/A   Unknown
12:55 AM 30.2 °F 26.7 °F 24.8 °F 80% 30.50 in - North 3.5 mph - N/A   Clear
1:15 AM 30.2 °F 25.4 °F 23.0 °F 75% 30.50 in - NNW 4.6 mph - N/A   Clear
1:35 AM 30.2 °F 25.4 °F 23.0 °F 75% 30.50 in - NNW 4.6 mph - N/A   Clear
1:55 AM 28.4 °F 23.3 °F 23.0 °F 80% 30.51 in - NNW 4.6 mph - N/A   Clear
2:15 AM 26.6 °F 19.1 °F 23.0 °F 86% 30.51 in - North 6.9 mph - N/A   Unknown
2:35 AM 24.8 °F 17.9 °F 21.2 °F 86% 30.50 in - North 5.8 mph - N/A   Unknown
2:55 AM 21.2 °F 13.6 °F 21.2 °F 100% 30.50 in - North 5.8 mph - N/A   Unknown
3:15 AM 23.0 °F 18.4 °F 21.2 °F 93% 30.50 in - NNW 3.5 mph - N/A   Unknown
3:35 AM 24.8 °F - 21.2 °F 86% 30.50 in - Calm Calm - N/A   Unknown
3:55 AM 23.0 °F 18.4 °F 21.2 °F 93% 30.51 in - North 3.5 mph - N/A   Unknown
4:15 AM 23.0 °F - 21.2 °F 93% 30.51 in - Calm Calm - N/A   Unknown
4:35 AM 24.8 °F - 21.2 °F 86% 30.50 in - Calm Calm - N/A   Unknown
4:55 AM 23.0 °F - 19.4 °F 86% 30.50 in - Calm Calm - N/A   Unknown
5:15 AM 23.0 °F 18.4 °F 21.2 °F 93% 30.50 in - NNE 3.5 mph - N/A   Unknown
5:35 AM 19.4 °F 12.8 °F 19.4 °F 100% 30.50 in - North 4.6 mph - N/A   Unknown
5:55 AM 19.4 °F 12.8 °F 19.4 °F 100% 30.50 in - North 4.6 mph - N/A   Unknown
6:15 AM 19.4 °F 10.4 °F 17.6 °F 93% 30.50 in - North 6.9 mph - N/A   Unknown
6:35 AM 19.4 °F 11.5 °F 17.6 °F 93% 30.50 in - North 5.8 mph - N/A   Unknown
6:51 AM 21.2 °F 12.6 °F 19.4 °F 93% 30.50 in 10.0 mi North 6.9 mph - N/A   Clear
6:55 AM 21.2 °F 14.9 °F 19.4 °F 93% 30.50 in - NNE 4.6 mph - N/A   Unknown
7:55 AM 30.2 °F 23.4 °F 24.8 °F 80% 30.52 in 10.0 mi North 6.9 mph - N/A   Clear
8:58 AM 33.8 °F 29.6 °F - N/A% 30.53 in - NNW 4.6 mph - N/A   Clear
9:52 AM - - - N/A% 30.49 in 10.0 mi North 11.5 mph - N/A   Clear
10:56 AM 39.2 °F 33.0 °F 32.0 °F 75% 30.50 in 10.0 mi North 9.2 mph - N/A   Clear
11:59 AM 42.8 °F 38.0 °F 32.0 °F 66% 30.47 in 10.0 mi North 8.1 mph - N/A   Clear
12:59 PM 46.4 °F 39.2 °F 15.8 °F 29% 30.45 in 10.0 mi North 18.4 mph 24.2 mph N/A   Clear
1:59 PM 48.2 °F - 15.8 °F 27% 30.42 in 10.0 mi NNW 20.7 mph 28.8 mph N/A   Clear
2:58 PM 50.0 °F - 12.2 °F 22% 30.42 in 10.0 mi NNW 16.1 mph 24.2 mph N/A   Clear
3:47 PM 51.8 °F - 14.0 °F 22% 30.41 in 10.0 mi North 11.5 mph - N/A   Clear
4:56 PM 53.6 °F - 15.8 °F 22% 30.39 in 10.0 mi North 12.7 mph 17.3 mph N/A   Clear
6:58 PM 51.8 °F - 12.2 °F 21% 30.38 in 10.0 mi North 10.4 mph 16.1 mph N/A   Clear
7:51 PM 50.0 °F - 14.0 °F 24% 30.37 in 10.0 mi NW 8.1 mph - N/A   Clear
8:55 PM 41.0 °F 36.4 °F 19.4 °F 42% 30.39 in 10.0 mi North 6.9 mph - N/A   Clear
9:15 PM 37.4 °F 31.4 °F 19.4 °F 48% 30.39 in 10.0 mi North 8.1 mph - N/A   Clear
9:35 PM 35.6 °F 30.7 °F 21.2 °F 56% 30.39 in - NNW 5.8 mph - N/A   Clear
9:55 PM 35.6 °F 28.6 °F 21.2 °F 56% 30.39 in - NNE 9.2 mph - N/A   Clear
10:15 PM 35.6 °F 28.6 °F 21.2 °F 56% 30.40 in 10.0 mi North 9.2 mph - N/A   Clear
10:35 PM 37.4 °F 32.1 °F 21.2 °F 52% 30.40 in - NNW 6.9 mph - N/A   Clear
10:55 PM 35.6 °F 28.6 °F 19.4 °F 52% 30.40 in - NW 9.2 mph - N/A   Clear
11:15 PM 35.6 °F 29.9 °F 19.4 °F 52% 30.39 in - North 6.9 mph - N/A   Clear
11:35 PM 33.8 °F 27.7 °F 19.4 °F 56% 30.40 in - WSW 6.9 mph - N/A   Clear
11:55 PM 33.8 °F - 19.4 °F 56% 30.40 in - Calm Calm - N/A   Clear